Location: Little Bennett Regional Park
(39.2840°N, 77.2890°W)
Time: 20:50:10
(UTC-04:00)

Daily predictions for brighter satellites

Satellite Brightness Start Highest point End
(mag) Time Altitude Azimuth Time Altitude Azimuth Time Altitude Azimuth
Cosmos 1862 Rocket 3.7 20:50:40 10° N 20:55:10 86° W 20:59:39 10° S
Spot 2 Rocket 3.7 20:51:25 10° SSE 20:56:31 81° WSW 21:01:39 10° NNW
Cosmos 1408 4.3 20:55:05 10° SE 20:57:26 16° E 20:59:48 10° NE
USA 215 4.5 20:52:48 10° E 20:58:29 33° NNE 21:04:11 10° NNW
ISS -3.5 20:56:30 10° WSW 20:59:44 69° NW 21:02:59 10° NE
Resurs 01 Rocket 2.4 20:59:22 10° S 21:03:42 55° W 21:08:04 10° NNW
NOSS 3-2 (C) 4.0 20:59:57 10° SW 21:05:52 66° NW 21:12:26 10° NNE
Tiangong 2 1.4 21:02:51 10° WNW 21:06:01 57° SSW 21:09:02 11° SE
Cosmos 2082 Rocket 4.2 21:02:02 10° NW 21:06:43 28° WSW 21:11:26 10° SSW
Cosmos 1900 4.5 21:01:43 10° NNW 21:06:56 81° ENE 21:12:03 10° SSE
Meteor 2-3 Rocket 3.7 21:04:58 10° S 21:10:41 83° E 21:16:23 10° N
CZ-4B DEB 3.6 21:09:38 11° SE 21:12:05 29° ENE 21:14:40 10° N
Cosmos 2346 Rocket 4.4 21:07:54 10° S 21:13:57 81° E 21:20:02 10° N
Cosmos 1825 3.3 21:11:08 10° SE 21:14:14 24° E 21:17:19 10° NE
Meteor 1-26 Rocket 4.4 21:09:25 10° NNW 21:15:06 80° W 21:20:52 10° S
Okean 1-7 3.7 21:11:21 10° N 21:15:29 37° ENE 21:19:23 11° SE
CENTAUR R/B 2.6 21:11:03 10° SSW 21:16:45 53° ESE 21:23:12 10° NE
Cosmos 2344 4.0 21:13:37 10° S 21:20:31 38° ESE 21:27:47 10° NE
Cosmos 1782 3.6 21:17:34 10° NNE 21:21:14 33° ENE 21:24:10 14° SE
SPOT 5 4.5 21:17:37 11° ESE 21:21:25 23° ENE 21:25:30 10° NNE
Shenzhou-11 Module 3.2 21:19:20 10° W 21:22:06 31° SSW 21:24:15 14° SSE
Aureole 1 4.4 21:20:30 10° SSW 21:23:30 78° WNW 21:26:57 10° NNE
Envisat 3.4 21:18:34 10° S 21:23:36 66° W 21:28:40 10° NNW
Cosmos 372 Rocket 4.4 21:19:20 10° S 21:24:06 40° ESE 21:28:53 10° NNE
SL-19 R/B 4.5 21:20:03 10° SSE 21:25:46 87° WSW 21:31:58 10° NNW
H-2A ROCKET BODY 3.2 21:27:25 10° SW 21:29:44 18° SSE 21:32:06 15° SE
Cosmos 1703 Rocket 3.5 21:28:04 10° N 21:32:30 90° NNE 21:36:52 10° S
DNEPR-1 R/B 3.8 21:27:44 10° SSW 21:33:05 68° ESE 21:37:38 10° NE
Cosmos 1943 Rocket 2.2 21:27:46 10° S 21:33:14 57° ESE 21:38:40 10° NNE
Cosmos 1892 4.2 21:30:13 10° SSW 21:33:50 39° W 21:37:27 10° N
Cosmos 1125 Rocket 3.4 21:34:00 10° S 21:39:13 70° ESE 21:44:26 10° NNE
Cosmos 1862 4.2 21:38:56 20° SE 21:40:50 30° E 21:44:19 10° NNE
Cosmos 1733 Rocket 4.2 21:40:35 20° ESE 21:42:12 25° E 21:45:44 10° NE
Helios 1B rocket 2.7 21:39:04 10° N 21:43:11 72° WNW 21:47:15 10° SSW
Cosmos 2084 3.6 21:43:41 10° NW 21:47:28 58° WSW 21:50:04 20° SSE
NOAA 11 4.2 21:44:20 16° SSE 21:48:48 71° ENE 21:54:17 10° N
Cosmos 2263 4.3 21:43:05 10° SSW 21:48:52 84° WNW 21:54:38 10° NNE
Cosmos 1340 3.1 21:46:15 10° N 21:49:54 45° ENE 21:51:33 27° SE
Cosmos 1869 Rocket 3.9 21:45:43 10° SSW 21:50:01 67° W 21:54:22 10° N
Lacrosse 4 Rocket 2.1 21:48:04 10° NNW 21:52:24 44° ENE 21:54:34 25° ESE
SAR-Lupe-4 3.7 21:52:14 19° S 21:54:42 74° WSW 21:58:17 10° NNW
Cosmos 2369 Rocket 3.2 21:53:16 10° SW 21:58:44 50° WNW 22:04:17 10° NNE
SL-08 RB Rocket 4.1 22:00:56 27° SE 22:03:07 48° ENE 22:07:36 10° N
YAOGAN 6 4.1 22:00:45 10° SSW 22:04:08 34° W 22:07:32 10° NNW
Cosmos 158 Rocket 3.8 22:02:36 10° NNW 22:07:30 86° WSW 22:10:13 26° SSE
Cosmos 1606 2.9 22:04:19 10° NNW 22:08:04 66° W 22:10:13 24° S
Cosmos 1833 4.3 22:03:01 10° NNW 22:08:47 64° ENE 22:11:43 29° SE
Cosmos 2221 Rocket 4.5 22:07:23 10° NNW 22:11:39 47° W 22:15:21 13° SSW
H-2A R/B 2.4 22:11:04 29° SE 22:13:34 52° ENE 22:18:43 10° N
MetOp-B 4.2 22:14:45 23° S 22:18:10 78° WSW 22:23:33 10° NNW
GPS 2-04 Rocket1 3.3 22:15:30 10° W 22:18:45 33° SSW 22:18:45 33° SSW
ATLAS 5 CENTAUR R/B 2.4 22:13:23 10° NNW 22:19:29 90° WSW 22:22:52 31° SSE
Lacrosse 5 rocket 3.8 22:17:13 10° W 22:20:02 21° NW 22:22:55 10° NNE
Cosmos 1674 Rocket 4.0 22:16:18 10° N 22:20:26 43° E 22:21:11 39° ESE
Landsat 7 4.5 22:21:54 33° ESE 22:23:08 40° ENE 22:27:35 10° N
ERS-1 Rocket 3.7 22:23:37 19° S 22:27:04 49° W 22:31:58 10° NNW
OAO 3 Copernicus 4.4 22:24:40 10° WSW 22:29:33 51° S 22:30:29 45° SE
Cosmos 1656 Rocket 3.5 22:25:33 17° SSW 22:29:48 74° ESE 22:35:19 10° NNE
BREEZE-M DEB (TANK) 3.9 22:27:34 10° NW 22:31:12 62° NE 22:40:24 19° ESE
ARGOS 3.3 22:28:52 28° S 22:31:45 71° WSW 22:37:07 10° NNW
H-2A R/B 3.6 22:33:43 20° ENE 22:33:45 20° ENE 22:36:45 10° NNE
Nadezhda 4 Rocket 3.9 22:30:13 23° S 22:34:18 85° E 22:40:30 10° N
Cosmos 1092 Rocket 4.0 22:31:56 34° SSE 22:34:28 59° E 22:40:30 10° NNE
Meteor 1-27 Rocket 3.8 22:28:49 10° NNW 22:34:33 76° W 22:37:23 30° S
Okean 3 4.1 22:31:40 10° N 22:35:35 37° ENE 22:35:35 37° ENE
IGS 5A 4.4 22:36:31 33° ENE 22:36:38 33° ENE 22:40:21 10° N
ISS -0.6 22:34:43 10° NW 22:36:41 15° NNW 22:38:40 10° NNE
Terra 2.4 22:37:35 37° E 22:38:18 40° ENE 22:42:44 10° N
USA 215 3.2 22:37:58 36° SE 22:40:59 88° SW 22:47:36 10° NW
YAOGAN 11 4.4 22:40:30 40° SSW 22:41:58 66° WSW 22:46:28 10° NNW
Cosmos 1908 Rocket 3.4 22:55:36 73° ESE 22:55:41 73° E 23:00:08 10° NNE
Cosmos 1437 3.9 22:53:55 10° N 22:56:09 41° N 22:56:09 41° N
Intercosmos 25 Rocket 4.3 22:51:22 10° NNW 22:58:09 68° W 22:59:26 46° SSW
SPOT 5 3.9 22:56:52 29° SSW 22:59:09 46° W 23:04:14 10° NNW
Milstar 3 3.5 22:55:41 10° WSW 23:04:59 39° S 23:05:32 39° S
Cosmos 2251 Rocket 3.3 23:01:48 10° NNW 23:07:04 84° ENE 23:07:41 70° SE
Okean 2 Rocket 4.3 23:08:46 30° ENE 23:08:46 30° ENE 23:11:37 10° NNE
CENTAUR R/B 4.4 23:02:19 10° WSW 23:07:44 31° NW 23:13:49 10° NNE
Cosmos 2227 Rocket 3.5 23:04:10 10° N 23:08:51 26° NE 23:10:00 24° ENE
DMSP B5D2-2 4.2 23:04:10 10° N 23:09:22 71° WNW 23:11:05 42° SW
SPOT 1/Viking Rocket 4.3 23:10:32 36° SW 23:12:00 45° W 23:17:01 10° NNW
Cosmos 2219 3.1 23:10:39 10° NNW 23:16:26 83° ENE 23:17:12 68° SE
Spot 4 4.3 23:17:07 48° ENE 23:17:07 48° ENE 23:21:37 10° N
Meteor 1-14 Rocket 4.2 23:17:48 58° S 23:19:04 88° W 23:24:55 10° N
deb Chang Zheng 4 4.3 23:16:28 10° NNE 23:19:47 45° NE 23:19:47 45° NE
CZ-4 R/B 4.2 23:16:42 10° NNE 23:20:29 52° NE 23:20:29 52° NE
Cosmos 1812 3.6 23:17:45 10° N 23:20:33 45° N 23:20:33 45° N
Cosmos 1782 Rocket 3.9 23:23:54 62° NNE 23:23:54 62° NNE 23:27:35 10° N
Cosmos 2195 Rocket 4.5 23:21:49 51° SSW 23:23:35 83° W 23:29:57 10° N
SME Rocket 4.4 23:22:43 54° SE 23:24:30 79° ENE 23:34:00 10° NNW
GEOS 3 Rocket 3.4 23:30:20 84° SE 23:30:30 89° NE 23:35:46 10° NW
Lacrosse 4 Rocket 3.7 23:27:49 10° WNW 23:30:43 17° WSW 23:30:55 17° WSW
Sich 1 Rocket 4.4 23:34:14 43° W 23:34:26 44° W 23:38:40 10° N
SL-19 R/B 4.5 23:30:08 10° NNE 23:36:14 80° WNW 23:37:41 55° SSW
ATLAS CENTAUR R/B 2.6 23:39:00 38° NW 23:39:00 38° NW 23:42:29 10° NNE
Gbstr 26 Del rocket 4.3 23:35:52 10° NW 23:39:33 31° NNE 23:39:33 31° NNE
Cosmos 1655 Rocket 3.8 23:42:10 70° SSW 23:42:57 87° W 23:49:14 10° N
Cosmos 405 Rocket 4.3 23:39:46 10° NNW 23:41:56 33° NNW 23:41:56 33° NNW
Cosmos 1975 Rocket 3.7 23:41:45 10° NNW 23:45:23 54° NW 23:45:23 54° NW
Cosmos 1867 4.5 23:47:14 10° NW 23:51:55 38° WSW 23:51:55 38° WSW
ALOS 2 4.4 23:53:43 23° NE 23:53:43 23° NE 23:56:16 10° NNE
Cosmos 2026 Rocket 4.4 23:51:36 45° SW 23:53:04 55° W 23:59:12 10° N
H-2A R/B 4.1 23:51:42 17° WSW 23:53:12 19° W 23:56:57 10° NW
Meteor 1-18 Rocket 4.4 23:47:34 10° NNW 23:53:16 66° W 23:53:31 65° WSW
